Weather in Azino

Russia / Udmurt Republic     56°58′21″N   52°42′36″E
temp.,
°C
wind,
m/s
gust,
m/s
humid.,
%
clouds,
%
prec.,
mm/h
press.,
hPa
HPBL,
m
16 april, fri
fri1601:00+8ne4109094 0.0 1022468
04:00+6ne51085100 0.0 1024580
07:00+5ne51279100 0.0 1026567
10:00+5ene5106485 0.0 1027595
13:00+10ene56439 0.0 10271016
16:00+10ne46392 0.0 10271118
19:00+7ne38540 0.0 1027296
22:00+3ne310650 0.0 1028238
17 april, sat
sat1701:00+1ne39700 0.0 1029215
04:000ne29745 0.0 1029179
07:00+2ne286662 0.0 1029236
10:00+7ne34455 0.0 1029870
13:00+10nne34395 0.0 10281366
16:00+11n34395 0.0 10261532
19:00+7n22584 0.0 102621
22:00+4nnw22715 0.0 102626
18 april, sun
sun1801:00+3nnw22754 0.0 102631
04:00+2nnw24790 0.0 102579
07:00+3nw27760 0.0 1025202
10:00+8nne456040 0.0 10251157
13:00+4ne4867100 0.0 1027641
16:00+7ne56335 0.0 10281739
19:00+4ene58441 0.0 1030949
22:00+1ne512501 0.0 1031625
19 april, mon
mon1901:000ene411580 0.0 1033578
04:00−2ene410610 0.0 1035478
07:00−1ene410510 0.0 1036803
10:00+2e68270 0.0 10361492
13:00+5e57240 0.0 10361676
16:00+5e56260 0.0 10351720
19:00+3e37390 0.0 1036215
22:00−1ene23540 0.0 103746
20 april, tue
tue2001:00−2ene23550 0.0 103753
04:00−2ene24540 0.0 103872
07:000e24440 0.0 1039209
10:00+5ese23290 0.0 10391093
13:00+7ese33270 0.0 10371338
16:00+8se23270 0.0 10361354
19:00+5ese11450 0.0 103610
22:00+2ese235559 0.0 103646